Location: Keppel Henge
(44.7900°N, 80.9447°W)
Time: 21:42:36
(UTC-04:00)

Tiangong 2 - Pass Details

Date: 08 October 2017
Orbit: 388 x 392 km, 42.8° (Epoch: 16 October)

Event Time Altitude Azimuth Distance (km) Brightness Sun altitude
Exits shadow 05:50:44 - 176° (S) 1,493 4.0 -18.5°
Reaches altitude 10° 05:51:11 10° 169° (S) 1,416 3.9 -18.4°
Maximum altitude 05:52:22 12° 147° (SSE) 1,325 4.0 -18.2°
Drops below altitude 10° 05:53:33 10° 126° (SE) 1,420 4.5 -18.0°
Sets 05:56:44 0° 91° (E) 2,281 6.6 -17.4°
